Location: Berlin
(42.3812°N, 71.6370°W)
Time: 22:23:31
(UTC+00:00)

Cosmos 676 Rocket - Pass Details

Date: 15 November 2025
Orbit: 750 x 779 km, 74.0° (Epoch: 09 December)

Event Time Altitude Azimuth Distance (km) Brightness Sun altitude
Exits shadow 10:15:40 10° 330° (NNW) 2,275 6.1 -15.2°
Maximum altitude 10:20:39 52° 256° (WSW) 941 4.1 -14.3°
Drops below altitude 10° 10:25:38 10° 181° (S) 2,272 6.6 -13.4°
Sets 10:28:01 0° 176° (S) 3,189 7.4 -13.0°
